When you browse on this site, cookies collect data to enhance your experience and personalize the content and advertising you see.
Visit our Privacy Policy to learn more. By continuing to use the site, you agree to this use of cookies and data.
  • En España
  • Lista de países
  • Para 7 días
  • Temperatura del agua
  • Mapa Satelital
  • El tiempo en el mapa
  • Informadores
  • user-avatar
    Iniciar sesión

    Tiempo cada hora Jonesboro

    Hoy, 16 Junio, Domingo

    Tiempo Temperatura Precipitaciones Viento Presión Humedad
    00:00 +26°C° 0 mm 4 mps 750 mmHg 79%
    01:00 +26°C° 0 mm 5 mps 750 mmHg 81%
    02:00 +26°C° 0 mm 5 mps 749 mmHg 83%
    03:00 +25°C° 0 mm 5 mps 749 mmHg 85%
    04:00 +25°C° 2.7 mm 5 mps 750 mmHg 87%
    05:00 +25°C° 2.7 mm 5 mps 750 mmHg 90%
    06:00 +25°C° 2.7 mm 4 mps 751 mmHg 92%
    07:00 +26°C° 0.3 mm 4 mps 751 mmHg 89%
    08:00 +27°C° 0.3 mm 4 mps 750 mmHg 86%
    09:00 +28°C° 0.3 mm 4 mps 750 mmHg 82%
    10:00 +29°C° 0 mm 5 mps 750 mmHg 75%
    11:00 +32°C° 0 mm 6 mps 750 mmHg 68%
    12:00 +33°C° 0 mm 7 mps 750 mmHg 61%
    13:00 +33°C° 0 mm 6 mps 750 mmHg 61%
    14:00 +34°C° 0 mm 6 mps 749 mmHg 61%
    15:00 +34°C° 0 mm 5 mps 749 mmHg 60%
    16:00 +33°C° 0.5 mm 5 mps 749 mmHg 65%
    17:00 +32°C° 0.5 mm 5 mps 749 mmHg 70%
    18:00 +30°C° 0.5 mm 5 mps 749 mmHg 75%
    19:00 +28°C° 0.3 mm 4 mps 749 mmHg 76%
    20:00 +27°C° 0.3 mm 4 mps 750 mmHg 78%
    21:00 +26°C° 0.3 mm 4 mps 750 mmHg 80%
    22:00 +25°C° 0.8 mm 3 mps 750 mmHg 84%
    23:00 +24°C° 0.8 mm 2 mps 750 mmHg 87%

    Mañana, 17 Junio, Lunes

    Tiempo Temperatura Precipitaciones Viento Presión Humedad
    00:00 +24°C° 0.8 mm 2 mps 750 mmHg 91%
    01:00 +22°C° 0 mm 3 mps 750 mmHg 91%
    02:00 +22°C° 0 mm 3 mps 750 mmHg 91%
    03:00 +21°C° 0 mm 4 mps 749 mmHg 91%
    04:00 +22°C° 0.8 mm 4 mps 750 mmHg 91%
    05:00 +22°C° 0.8 mm 4 mps 750 mmHg 90%
    06:00 +22°C° 0.8 mm 4 mps 751 mmHg 90%
    07:00 +23°C° 0.2 mm 4 mps 751 mmHg 86%
    08:00 +25°C° 0.2 mm 3 mps 751 mmHg 83%
    09:00 +26°C° 0.2 mm 3 mps 751 mmHg 80%
    10:00 +28°C° 0 mm 3 mps 751 mmHg 74%
    11:00 +29°C° 0 mm 3 mps 751 mmHg 69%
    12:00 +32°C° 0 mm 4 mps 751 mmHg 63%
    13:00 +30°C° 2.1 mm 5 mps 750 mmHg 69%
    14:00 +29°C° 2.1 mm 6 mps 750 mmHg 75%
    15:00 +27°C° 2.1 mm 7 mps 750 mmHg 81%
    16:00 +27°C° 0.9 mm 6 mps 750 mmHg 81%
    17:00 +27°C° 0.9 mm 5 mps 749 mmHg 82%
    18:00 +27°C° 0.9 mm 4 mps 749 mmHg 82%
    19:00 +26°C° 0.5 mm 4 mps 750 mmHg 85%
    20:00 +26°C° 0.5 mm 3 mps 750 mmHg 88%
    21:00 +25°C° 0.5 mm 3 mps 750 mmHg 90%
    22:00 +25°C° 1.9 mm 4 mps 750 mmHg 92%
    23:00 +23°C° 1.9 mm 4 mps 750 mmHg 93%

    Pasado mañana, 18 Junio, Martes

    Tiempo Temperatura Precipitaciones Viento Presión Humedad
    00:00 +23°C° 1.9 mm 5 mps 750 mmHg 95%
    01:00 +22°C° 0.8 mm 5 mps 750 mmHg 95%
    02:00 +22°C° 0.8 mm 4 mps 750 mmHg 95%
    03:00 +21°C° 0.8 mm 3 mps 750 mmHg 96%
    04:00 +22°C° 0 mm 3 mps 750 mmHg 96%
    05:00 +23°C° 0 mm 2 mps 750 mmHg 95%
    06:00 +23°C° 0 mm 2 mps 750 mmHg 95%
    07:00 +24°C° 0 mm 2 mps 750 mmHg 91%
    08:00 +25°C° 0 mm 2 mps 751 mmHg 86%
    09:00 +26°C° 0 mm 2 mps 751 mmHg 82%
    10:00 +27°C° 0 mm 2 mps 751 mmHg 76%
    11:00 +28°C° 0 mm 2 mps 751 mmHg 71%
    12:00 +30°C° 0 mm 2 mps 751 mmHg 65%
    13:00 +30°C° 0 mm 2 mps 750 mmHg 63%
    14:00 +30°C° 0 mm 2 mps 750 mmHg 62%
    15:00 +31°C° 0 mm 1 mps 749 mmHg 61%
    16:00 +31°C° 0 mm 1 mps 749 mmHg 63%
    17:00 +30°C° 0 mm 1 mps 749 mmHg 66%
    18:00 +28°C° 0 mm 0 mps 749 mmHg 68%
    19:00 +29°C° 0 mm 1 mps 749 mmHg 71%
    20:00 +27°C° 0 mm 2 mps 749 mmHg 74%
    21:00 +26°C° 0 mm 2 mps 749 mmHg 78%
    22:00 +25°C° 0 mm 2 mps 749 mmHg 79%
    23:00 +25°C° 0 mm 2 mps 749 mmHg 81%

    19 Junio, Miércoles

    Tiempo Temperatura Precipitaciones Viento Presión Humedad
    00:00 +25°C° 0 mm 2 mps 749 mmHg 82%
    01:00 +24°C° 0.1 mm 2 mps 749 mmHg 85%
    02:00 +24°C° 0.1 mm 3 mps 749 mmHg 87%
    03:00 +24°C° 0.1 mm 3 mps 748 mmHg 90%
    04:00 +24°C° 0.3 mm 3 mps 748 mmHg 90%
    05:00 +24°C° 0.3 mm 3 mps 748 mmHg 90%
    06:00 +25°C° 0.3 mm 4 mps 748 mmHg 91%
    07:00 +26°C° 0.2 mm 4 mps 748 mmHg 89%
    08:00 +27°C° 0.2 mm 4 mps 748 mmHg 87%
    09:00 +28°C° 0.2 mm 4 mps 748 mmHg 85%
    10:00 +29°C° 0.8 mm 4 mps 748 mmHg 78%
    11:00 +32°C° 0.8 mm 5 mps 747 mmHg 72%
    12:00 +33°C° 0.8 mm 6 mps 747 mmHg 66%
    13:00 +34°C° 0 mm 6 mps 746 mmHg 64%
    14:00 +34°C° 0 mm 6 mps 746 mmHg 63%
    15:00 +35°C° 0 mm 6 mps 745 mmHg 62%
    16:00 +34°C° 0.4 mm 5 mps 745 mmHg 65%
    17:00 +34°C° 0.4 mm 5 mps 744 mmHg 68%
    18:00 +33°C° 0.4 mm 5 mps 744 mmHg 71%
    19:00 +32°C° 0.1 mm 5 mps 744 mmHg 75%
    20:00 +30°C° 0.1 mm 5 mps 744 mmHg 78%
    21:00 +29°C° 0.1 mm 5 mps 744 mmHg 82%
    22:00 +27°C° 1 mm 7 mps 744 mmHg 76%
    23:00 +26°C° 1 mm 8 mps 744 mmHg 69%

    20 Junio, Jueves

    Tiempo Temperatura Precipitaciones Viento Presión Humedad
    00:00 +24°C° 1 mm 10 mps 744 mmHg 63%
    01:00 +23°C° 1 mm 8 mps 744 mmHg 68%
    02:00 +23°C° 1 mm 6 mps 744 mmHg 74%
    03:00 +22°C° 1 mm 4 mps 744 mmHg 79%
    04:00 +22°C° 3.1 mm 5 mps 744 mmHg 84%
    05:00 +22°C° 3.1 mm 6 mps 744 mmHg 88%
    06:00 +22°C° 3.1 mm 7 mps 745 mmHg 93%
    07:00 +23°C° 0.8 mm 7 mps 745 mmHg 88%
    08:00 +24°C° 0.8 mm 7 mps 745 mmHg 83%
    09:00 +26°C° 0.8 mm 6 mps 745 mmHg 78%
    10:00 +27°C° 0.4 mm 6 mps 745 mmHg 74%
    11:00 +28°C° 0.4 mm 6 mps 746 mmHg 71%
    12:00 +29°C° 0.4 mm 6 mps 746 mmHg 67%
    13:00 +30°C° 0.5 mm 6 mps 746 mmHg 66%
    14:00 +30°C° 0.5 mm 6 mps 746 mmHg 65%
    15:00 +30°C° 0.5 mm 5 mps 745 mmHg 64%
    16:00 +30°C° 0 mm 4 mps 746 mmHg 66%
    17:00 +30°C° 0 mm 3 mps 746 mmHg 67%
    18:00 +29°C° 0 mm 2 mps 746 mmHg 69%
    19:00 +28°C° 0 mm 2 mps 746 mmHg 72%
    20:00 +27°C° 0 mm 2 mps 747 mmHg 75%
    21:00 +25°C° 0 mm 2 mps 747 mmHg 77%
    22:00 +25°C° 0 mm 2 mps 748 mmHg 79%
    23:00 +24°C° 0 mm 2 mps 748 mmHg 81%

    21 Junio, Viernes

    Tiempo Temperatura Precipitaciones Viento Presión Humedad
    00:00 +23°C° 0 mm 2 mps 748 mmHg 83%
    01:00 +23°C° 0 mm 1 mps 748 mmHg 85%
    02:00 +22°C° 0 mm 1 mps 749 mmHg 87%
    03:00 +20°C° 0 mm 0 mps 749 mmHg 88%
    04:00 +20°C° 0 mm 0 mps 749 mmHg 87%
    05:00 +23°C° 0 mm 1 mps 750 mmHg 87%
    06:00 +23°C° 0 mm 1 mps 750 mmHg 86%
    07:00 +25°C° 0 mm 1 mps 750 mmHg 80%
    08:00 +27°C° 0 mm 2 mps 751 mmHg 74%
    09:00 +28°C° 0 mm 2 mps 751 mmHg 68%
    10:00 +30°C° 0 mm 3 mps 751 mmHg 65%
    11:00 +31°C° 0 mm 3 mps 751 mmHg 63%
    12:00 +33°C° 0 mm 4 mps 750 mmHg 60%
    13:00 +34°C° 0 mm 4 mps 750 mmHg 61%
    14:00 +34°C° 0 mm 4 mps 750 mmHg 62%
    15:00 +35°C° 0 mm 5 mps 749 mmHg 64%
    16:00 +35°C° 0 mm 4 mps 749 mmHg 68%
    17:00 +34°C° 0 mm 4 mps 749 mmHg 72%
    18:00 +34°C° 0 mm 4 mps 749 mmHg 76%
    19:00 +33°C° 0 mm 4 mps 749 mmHg 80%
    20:00 +30°C° 0 mm 4 mps 749 mmHg 83%
    21:00 +29°C° 0 mm 5 mps 749 mmHg 86%
    22:00 +29°C° 0 mm 4 mps 749 mmHg 87%
    23:00 +29°C° 0 mm 4 mps 749 mmHg 88%
    Mostrar más